Simultaneous Nadir Overpasses (SNOs) Predictions

Prediction of SNOs between GOES-15 and NPP Satellite Orbit:

Table of predicted SNOs for the next 14.0 days since TLE Epoch: 8/13/2022
Index Date Time (GOES-15) GOES-15 Lat,Lon NPP Lat,Lon Distance(km) Time Diff (sec)
1 08/13/2022 21:56:38 -0.38,-128.06 -0.38,-128.08 2.26 80
2 08/16/2022 10:02:23 0.39,-128.08 0.54,-128.82 83.91 80
3 08/17/2022 09:40:58 0.38,-128.08 -0.45,-124.29 431.70 80
4 08/18/2022 22:02:56 -0.39,-128.06 -0.74,-129.59 174.95 80
5 08/19/2022 21:46:52 -0.38,-128.06 0.30,-125.07 341.10 80
6 08/21/2022 10:08:40 0.39,-128.08 0.90,-130.34 257.38 80
7 08/22/2022 09:47:17 0.38,-128.07 -0.15,-125.82 257.52 80
8 08/23/2022 22:09:13 -0.39,-128.03 -1.09,-131.11 351.65 80
9 08/24/2022 21:53:10 -0.38,-128.03 -0.05,-126.59 163.84 80
10 08/26/2022 10:14:58 0.38,-128.05 1.24,-131.86 434.22 80
